Temp
21 21 21 21 21 20 20 20 20 20 20 20 20 20 20 20 20 20 20 20 20 21 20 21 21 20 21 21 20 21 21 21 21 20 21 21 21 20 21 21 21 21
21 21 21 21 20 20 20 20 20 20 20 20 20 20 20 20 20 20 20 20 20 20 21 21 21 21 21 20 20 21 21 21 21 20 20 21 21 21 21 21 21 21
21 21 21 21 20 20 20 20 20 20 20 20 20 20 20 20 20 20 20 20 20 20 20 20 21 21 21 20 21 21 20 21 21 20 20 21 21 21 21 21 21 21
21 21 21 21 21 21 20 20 20 20 20 20 20 20 20 20 20 20 20 20 20 20 20 20 21 21 21 21 21 21 21 21 21 20 20 21 21 21 21 20 21 21
20 20 20 20 21 21 21 21 20 20 20 20 20 20 20 20 20 20 20 21 21 20 20 20 21 21 21 21 21 21 21 21 21 21 21 21 21 21 21 21 21 21
20 20 20 20 20 21 21 21 21 21 21 20 20 21 21 20 20 20 20 20 21 20 20 21 21 20 21 21 21 21 21 20 20 21 21 21 21 21 20 20 20 20
20 20 20 20 20 20 21 21 21 21 21 21 21 21 21 21 20 20 20 20 20 20 20 21 20 20 20 21 21 21 21 20 20 21 21 21 21 21 20 20 20 20
20 20 20 20 20 20 20 21 21 21 21 21 21 21 21 21 20 20 20 20 20 20 20 20 20 20 20 20 21 21 21 20 20 21 21 21 21 21 21 21 20 21
20 20 20 20 20 20 21 21 21 21 21 21 21 21 21 21 21 21 20 20 20 20 20 20 20 20 20 20 20 20 20 20 20 20 20 21 21 21 21 21 21 21
20 20 20 20 21 21 21 21 21 21 21 21 21 21 21 21 21 21 21 20 20 20 20 20 20 21 21 20 20 20 20 20 20 20 20 20 21 20 20 20 21 21
20 20 20 20 21 21 21 21 21 21 21 21 21 21 21 21 21 21 21 20 20 20 21 21 21 21 21 21 20 20 21 20 20 20 20 20 20 20 20 20 21 21
20 20 20 20 21 21 21 21 21 22 22 22 21 22 22 21 21 21 21 20 21 21 21 21 21 21 21 21 20 20 21 21 20 20 20 20 20 20 20 20 21 21
20 20 20 20 20 20 20 21 21 22 22 22 22 22 22 22 22 22 21 21 21 21 21 20 20 21 21 21 21 20 20 20 20 20 20 20 20 20 20 21 21 21
21 20 20 20 20 20 20 21 21 21 22 22 22 22 22 22 22 22 22 21 20 21 21 20 20 20 21 21 21 21 20 20 20 20 20 21 20 20 21 21 21 21
21 20 20 20 20 20 20 20 21 21 21 21 21 22 22 22 22 22 22 22 21 20 21 21 20 20 20 21 21 21 20 20 20 20 20 21 21 21 21 21 21 21
21 20 20 20 20 20 20 20 21 21 21 21 21 21 21 21 21 21 22 22 22 21 21 21 20 20 21 21 21 21 21 20 20 20 20 21 21 21 21 21 21 21
20 20 20 20 20 20 20 20 21 21 21 21 21 21 21 21 21 21 21 21 21 21 21 20 20 21 21 21 21 21 20 20 20 20 20 21 21 21 21 21 21 21
19 19 20 20 20 19 19 20 20 20 20 21 21 20 20 20 20 21 20 20 21 21 20 20 20 20 21 21 21 21 20 20 20 20 20 20 20 21 20 20 20 20
18 18 19 19 19 19 19 19 19 20 20 20 20 20 20 20 20 20 20 20 20 20 20 20 20 20 21 21 21 21 21 21 20 20 20 20 20 20 20 20 20 20
18 18 18 18 18 18 19 19 19 19 19 19 20 20 20 20 20 20 20 20 20 20 20 20 20 20 20 20 21 21 20 20 20 20 20 20 20 20 20 20 20 20
18 18 18 18 18 18 18 18 18 19 19 19 19 19 19 19 19 19 19 19 19 19 20 20 20 20 20 20 20 20 20 20 20 20 20 20 20 20 20 20 20 20
17 18 18 18 18 18 17 17 18 18 18 18 19 18 18 19 19 19 19 19 19 19 19 20 20 20 19 19 20 20 20 20 20 19 20 20 20 20 20 19 20 20
17 17 17 17 17 17 17 17 18 18 18 18 18 18 18 18 18 18 18 19 19 19 19 19 19 19 19 19 19 19 19 19 19 19 19 20 19 19 19 19 20 20
16 16 17 16 16 17 17 17 17 17 17 18 18 18 18 18 17 18 18 18 18 18 18 19 19 19 19 19 19 19 19 19 19 19 19 19 19 19 19 19 19 19
16 16 16 15 15 16 16 16 16 17 17 18 18 17 17 17 17 18 18 18 17 18 18 18 18 19 19 19 19 19 19 18 18 18 19 19 19 19 19 19 19 19
15 15 15 15 15 15 15 15 15 16 16 17 17 17 17 17 17 17 17 17 17 17 17 17 18 18 18 18 18 18 18 18 18 18 18 19 19 19 19 19 18 19
Height
1581 1582 1583 1584 1585 1587 1589 1590 1591 1591 1592 1592 1593 1594 1594 1595 1595 1596 1596 1597 1598 1598 1599 1599 1599 1599 1600 1601 1602 1603 1603 1604 1604 1605 1606 1606 1607 1608 1609 1610 1610 1610
1580 1581 1582 1584 1585 1587 1589 1590 1591 1591 1592 1592 1592 1593 1594 1594 1595 1595 1596 1597 1597 1598 1598 1599 1599 1599 1600 1600 1601 1602 1602 1603 1604 1604 1605 1605 1606 1607 1608 1609 1609 1610
1579 1581 1582 1584 1585 1587 1588 1589 1590 1591 1592 1592 1592 1593 1594 1594 1594 1595 1595 1596 1597 1597 1598 1598 1599 1599 1600 1600 1601 1601 1602 1602 1603 1603 1604 1605 1605 1606 1607 1608 1608 1609
1579 1580 1582 1584 1585 1586 1588 1588 1589 1590 1591 1592 1592 1592 1593 1593 1594 1594 1595 1596 1596 1597 1597 1598 1598 1599 1599 1600 1600 1601 1601 1601 1602 1602 1603 1604 1604 1605 1606 1607 1608 1608
1578 1580 1581 1583 1584 1586 1587 1588 1589 1590 1590 1591 1592 1592 1592 1593 1594 1594 1595 1595 1596 1596 1597 1597 1598 1598 1598 1599 1599 1600 1600 1601 1601 1602 1602 1603 1603 1604 1605 1606 1606 1607
1577 1579 1581 1583 1584 1585 1586 1587 1588 1589 1590 1590 1591 1591 1592 1592 1593 1594 1594 1595 1595 1596 1596 1597 1597 1597 1598 1598 1599 1599 1600 1600 1600 1601 1601 1602 1602 1603 1604 1604 1605 1605
1576 1578 1580 1581 1583 1584 1585 1586 1587 1588 1589 1590 1590 1591 1592 1592 1593 1593 1594 1595 1595 1596 1596 1596 1596 1597 1597 1598 1598 1599 1599 1599 1599 1600 1601 1601 1601 1602 1602 1603 1603 1604
1575 1577 1578 1580 1582 1583 1584 1585 1586 1587 1589 1590 1590 1591 1591 1592 1592 1593 1594 1595 1595 1595 1595 1596 1596 1596 1597 1597 1597 1598 1598 1599 1599 1599 1600 1600 1600 1601 1601 1602 1602 1602
1574 1575 1577 1579 1580 1582 1583 1584 1586 1587 1588 1588 1589 1590 1591 1591 1592 1593 1593 1594 1594 1595 1595 1595 1595 1595 1596 1596 1596 1597 1597 1598 1598 1598 1599 1599 1600 1600 1600 1601 1601 1601
1573 1574 1576 1577 1579 1581 1582 1583 1585 1586 1587 1588 1588 1590 1590 1591 1591 1592 1593 1593 1593 1594 1594 1594 1594 1595 1595 1596 1596 1596 1597 1597 1598 1598 1598 1599 1599 1599 1600 1600 1600 1600
1571 1573 1574 1576 1577 1579 1581 1582 1584 1585 1586 1587 1588 1589 1590 1590 1591 1591 1592 1592 1592 1593 1593 1594 1594 1594 1594 1595 1595 1596 1596 1597 1597 1597 1598 1598 1598 1598 1599 1599 1599 1600
1570 1571 1573 1574 1576 1578 1579 1581 1583 1584 1585 1586 1587 1588 1589 1590 1590 1590 1591 1591 1591 1592 1592 1593 1593 1593 1594 1594 1595 1595 1595 1596 1596 1597 1597 1597 1597 1598 1598 1598 1598 1598
1569 1570 1572 1573 1575 1576 1577 1579 1581 1583 1584 1585 1586 1587 1588 1589 1590 1590 1590 1591 1591 1591 1592 1592 1592 1593 1593 1593 1594 1594 1594 1595 1595 1596 1596 1597 1597 1597 1597 1597 1598 1598
1567 1569 1571 1572 1573 1574 1576 1577 1578 1580 1582 1583 1585 1586 1587 1588 1589 1590 1590 1590 1590 1590 1591 1591 1591 1592 1592 1592 1593 1593 1594 1594 1594 1595 1595 1595 1596 1596 1596 1597 1597 1597
1565 1567 1569 1571 1572 1573 1574 1575 1577 1578 1579 1581 1583 1584 1586 1587 1588 1589 1590 1590 1590 1590 1590 1590 1591 1591 1591 1591 1592 1592 1593 1594 1594 1594 1594 1594 1594 1595 1595 1595 1596 1596
1564 1565 1567 1568 1569 1571 1572 1573 1575 1576 1578 1579 1580 1581 1583 1584 1586 1587 1588 1589 1590 1590 1590 1589 1589 1590 1590 1590 1591 1591 1592 1593 1593 1593 1593 1593 1593 1593 1594 1594 1595 1595
1562 1564 1565 1566 1567 1569 1570 1571 1573 1574 1575 1577 1578 1580 1581 1582 1583 1585 1586 1588 1589 1589 1589 1588 1588 1589 1589 1589 1590 1590 1591 1592 1592 1592 1592 1592 1592 1592 1593 1594 1594 1594
1561 1562 1563 1565 1566 1567 1568 1569 1571 1572 1574 1575 1577 1578 1579 1580 1582 1583 1585 1586 1586 1586 1585 1585 1586 1588 1588 1588 1589 1589 1590 1590 1591 1591 1591 1591 1591 1591 1591 1591 1590 1590
1559 1561 1562 1564 1565 1566 1567 1568 1569 1570 1571 1573 1574 1576 1577 1579 1580 1581 1582 1583 1583 1583 1583 1583 1584 1586 1587 1587 1587 1588 1588 1589 1589 1590 1590 1590 1591 1590 1589 1589 1588 1588
1558 1559 1561 1562 1564 1565 1565 1566 1567 1567 1568 1570 1571 1573 1574 1576 1577 1579 1580 1581 1582 1582 1582 1582 1583 1584 1585 1586 1586 1586 1587 1587 1588 1588 1588 1589 1589 1588 1587 1586 1586 1587
1556 1557 1559 1560 1562 1563 1563 1563 1563 1564 1565 1567 1568 1569 1571 1573 1574 1576 1577 1579 1580 1580 1580 1580 1581 1582 1583 1584 1584 1585 1585 1586 1586 1586 1586 1586 1587 1586 1585 1585 1585 1585
1554 1556 1557 1558 1559 1560 1561 1560 1560 1561 1562 1564 1565 1566 1568 1569 1570 1571 1573 1576 1578 1578 1578 1578 1579 1580 1581 1582 1583 1583 1583 1584 1584 1584 1584 1584 1585 1585 1584 1584 1584 1584
1552 1554 1555 1555 1556 1557 1557 1557 1557 1559 1560 1561 1563 1564 1565 1565 1566 1567 1569 1572 1574 1574 1574 1575 1576 1578 1578 1579 1580 1581 1581 1582 1582 1581 1582 1582 1582 1583 1583 1583 1582 1582
1550 1551 1552 1553 1553 1554 1554 1554 1556 1557 1559 1560 1562 1562 1562 1563 1563 1564 1566 1567 1569 1569 1571 1572 1574 1575 1576 1577 1578 1578 1579 1579 1579 1579 1579 1579 1580 1580 1580 1580 1580 1580
1548 1549 1550 1551 1552 1552 1552 1554 1555 1557 1558 1560 1560 1560 1560 1560 1560 1559 1560 1562 1564 1565 1567 1569 1571 1572 1573 1574 1575 1576 1577 1577 1577 1577 1577 1577 1577 1578 1578 1578 1578 1579
1547 1548 1549 1550 1551 1552 1553 1554 1555 1557 1559 1559 1559 1558 1558 1558 1558 1555 1554 1557 1560 1562 1564 1567 1568 1569 1571 1572 1573 1574 1575 1575 1575 1574 1575 1575 1576 1576 1575 1575 1576 1576
Wind_Speed
13 13 12 11 10 9 8 9 8 8 8 7 6 8 9 6 5 7 6 5 5 5 5 7 6 6 6 6 8 9 7 7 7 4 3 4 4 3 3 3 3 3
12 11 11 11 11 10 9 9 9 9 9 8 8 8 8 6 6 7 7 5 5 5 4 5 5 6 6 5 6 7 6 6 6 4 3 4 5 6 6 4 2 2
13 12 12 12 13 13 12 11 10 9 8 9 9 7 7 8 8 8 8 6 6 6 4 4 5 6 7 6 5 6 5 4 5 5 5 6 6 6 4 3 2 3
15 14 13 12 13 14 13 13 11 10 9 10 9 7 6 7 7 8 8 6 7 8 6 5 6 6 7 7 6 6 5 4 5 6 6 6 6 6 5 3 3 4
16 16 14 12 12 11 12 13 12 10 10 9 8 8 8 7 7 7 6 6 7 7 7 6 6 6 7 6 6 6 6 5 6 6 6 6 6 5 4 5 6 6
17 17 16 14 12 11 11 12 10 9 9 8 8 8 8 8 8 7 6 7 6 6 7 6 6 5 5 5 6 6 7 6 7 7 5 5 5 5 5 6 7 6
15 16 17 16 15 13 12 11 10 10 10 10 10 9 9 9 9 8 8 8 6 7 8 6 6 6 7 6 5 6 7 7 8 8 6 5 6 7 7 7 7 7
15 15 15 15 15 14 12 11 11 12 12 11 11 11 10 10 10 9 10 10 8 8 9 7 7 8 8 8 7 7 7 7 8 8 6 7 7 7 7 8 8 8
15 15 15 14 14 14 13 12 12 12 12 12 11 11 11 11 10 9 10 11 9 9 10 9 8 9 9 9 9 9 7 7 8 8 8 8 8 7 6 6 7 7
16 15 15 15 14 14 13 13 13 12 12 12 11 11 11 12 12 11 11 12 12 12 12 12 11 11 10 9 10 10 9 8 9 9 9 8 7 7 6 6 7 6
16 15 15 14 14 15 14 13 13 13 13 13 13 12 12 13 13 12 12 14 15 14 13 13 13 13 11 10 10 10 10 9 9 10 10 9 9 9 8 8 8 7
15 15 15 15 15 16 16 14 13 13 14 14 14 13 13 13 13 13 13 15 16 15 14 14 14 14 13 12 11 11 11 10 9 9 10 11 11 9 9 9 9 8
17 16 15 14 15 17 17 17 15 14 14 14 14 14 14 13 13 14 15 15 16 15 14 14 14 14 14 13 12 12 12 12 11 10 11 11 10 9 9 10 9 10
17 16 16 16 16 17 18 19 19 18 15 13 13 14 14 14 14 14 15 15 16 15 14 14 14 15 14 14 14 13 12 13 12 11 11 12 10 10 11 10 10 11
18 17 17 18 17 17 18 18 19 21 20 16 14 14 14 14 14 15 15 15 16 16 16 14 14 16 15 14 14 14 13 12 12 13 13 12 11 11 11 10 11 12
19 19 19 20 20 20 20 18 18 19 21 21 20 18 17 16 15 16 16 15 15 16 17 15 14 15 16 14 13 14 13 11 12 14 14 13 11 11 12 13 13 11
18 20 21 22 22 22 22 21 20 19 20 21 22 21 21 20 19 19 18 15 14 14 16 17 17 16 16 15 14 15 15 14 13 13 12 12 12 12 13 14 13 11
15 17 19 21 22 23 23 23 22 22 21 22 22 22 22 22 22 21 19 17 15 15 15 14 16 17 17 17 17 17 18 17 15 13 11 10 10 11 13 14 15 14
15 16 17 20 21 22 22 23 23 23 23 23 23 23 23 23 23 22 22 20 20 21 19 15 14 16 17 18 18 19 19 18 17 16 15 13 12 12 15 17 18 18
17 16 16 17 20 23 23 24 24 24 25 25 26 26 26 26 25 24 24 23 22 23 24 20 16 15 16 17 19 19 19 18 18 18 19 18 17 17 18 19 19 18
17 17 15 14 15 18 21 23 25 26 27 27 27 28 28 29 29 28 28 26 24 23 24 23 20 18 18 17 18 20 20 19 19 19 20 20 20 19 19 19 19 18
18 18 17 16 16 17 18 20 22 24 25 26 26 26 27 29 30 30 30 29 28 26 24 24 23 22 20 19 18 20 20 20 20 20 21 21 20 20 19 18 19 18
16 16 17 18 19 19 19 20 21 22 22 22 23 23 24 26 27 28 30 29 29 28 28 27 24 21 20 19 19 21 20 19 19 19 19 20 19 19 19 18 18 17
11 13 14 15 17 18 17 16 18 20 20 20 20 21 23 24 24 26 28 28 28 29 29 28 26 23 22 21 21 21 20 19 19 18 18 19 18 17 17 17 17 16
7 8 9 9 9 10 9 8 9 13 16 17 19 21 22 22 23 27 29 28 29 30 29 28 27 25 24 22 21 21 20 18 17 17 17 18 17 16 16 17 18 17
8 8 6 4 2 2 1 1 1 3 7 9 13 17 18 18 19 22 26 26 26 26 27 27 26 24 22 20 19 18 16 16 17 18 18 17 16 15 16 17 18 18
Wind_Direction
189 189 192 187 174 180 190 189 192 192 188 180 178 189 185 182 195 208 220 218 225 238 211 201 208 208 208 201 205 215 213 207 207 209 228 218 189 176 192 203 224 223
192 190 194 193 182 186 194 192 198 197 190 189 191 196 191 188 204 215 223 231 232 234 216 204 216 215 211 215 217 217 214 209 204 197 221 231 207 190 190 183 196 235
192 193 196 198 191 192 196 193 200 201 191 198 207 210 202 199 206 209 214 223 216 217 223 220 229 223 213 220 225 224 227 217 200 198 221 237 220 194 187 184 196 228
193 197 198 202 200 200 201 194 198 205 200 202 214 222 212 204 211 210 208 211 207 212 224 226 229 228 224 225 223 226 238 238 219 216 227 239 231 204 187 202 216 214
195 196 195 203 208 211 210 201 201 209 207 208 217 221 214 209 214 213 214 218 211 212 221 227 232 234 231 229 228 231 235 243 240 232 234 239 236 220 200 218 226 218
202 197 193 197 207 220 216 202 207 216 213 217 222 221 222 223 214 204 220 235 220 215 226 229 229 237 241 230 229 234 226 235 252 248 249 255 245 232 222 231 238 228
209 204 199 197 199 214 216 202 209 219 212 216 222 219 221 231 225 208 220 234 221 224 241 239 221 230 248 242 236 240 225 230 255 257 254 259 251 240 228 227 240 243
208 206 206 206 202 208 214 208 213 219 216 216 221 219 217 226 233 219 219 227 222 235 251 246 228 235 248 248 242 247 237 233 251 259 259 259 254 252 243 235 241 248
204 205 205 209 210 212 216 215 217 220 220 219 220 224 224 227 230 222 227 234 224 231 246 244 240 247 252 248 244 249 250 245 245 251 265 271 262 257 259 254 255 257
202 206 207 206 209 215 219 219 222 223 226 227 226 227 228 230 232 225 230 240 231 226 236 238 239 248 252 248 247 248 248 249 248 246 253 262 255 253 259 262 268 272
204 208 210 207 208 215 218 219 224 228 229 231 231 232 231 235 245 240 228 239 243 238 239 240 240 247 251 248 248 251 252 252 251 249 249 252 253 249 245 247 253 255
206 209 211 211 214 219 218 217 226 233 234 234 233 235 236 235 245 246 233 238 248 247 245 246 247 249 249 247 244 246 255 257 255 257 258 256 259 258 252 258 263 258
206 208 211 213 217 223 221 216 221 228 233 238 236 235 239 237 238 243 242 245 251 254 250 246 249 252 251 249 245 240 249 256 256 258 259 258 265 267 261 264 269 270
210 209 212 215 218 226 230 225 220 217 220 231 238 238 242 242 239 242 247 247 248 256 258 246 244 252 252 251 250 243 242 249 254 256 255 257 261 258 258 261 261 265
216 212 214 219 220 224 233 236 230 222 218 220 228 237 241 244 244 244 248 250 247 255 262 253 245 250 254 255 255 253 247 243 251 258 256 254 255 256 263 266 260 262
218 214 214 219 222 224 228 236 237 231 226 224 225 227 230 235 239 238 242 250 251 254 261 259 251 250 254 259 261 262 261 249 245 254 257 257 257 256 262 265 263 267
223 220 218 219 223 226 230 235 239 239 237 236 233 231 229 230 233 234 238 245 250 256 260 257 251 245 245 251 255 255 257 255 252 256 260 263 262 260 267 275 278 277
225 226 227 225 225 227 230 234 238 240 243 244 244 243 239 236 235 235 238 241 243 248 252 251 249 247 242 242 246 250 254 257 258 257 261 267 274 282 284 278 272 265
228 231 234 234 234 233 234 236 238 241 244 245 246 247 246 245 242 239 239 241 240 241 246 250 253 255 251 244 246 252 255 257 258 259 263 266 267 277 279 269 266 268
238 240 243 245 245 244 244 245 246 247 249 249 249 249 248 247 246 243 241 241 241 241 243 246 251 257 256 249 248 250 251 254 257 260 266 266 259 261 268 270 274 282
240 239 242 246 249 247 247 248 248 248 249 250 250 250 248 245 244 244 244 242 242 242 241 242 247 251 252 250 249 249 250 252 256 260 264 265 262 261 265 272 278 284
238 240 244 247 249 246 242 242 245 246 246 247 248 247 245 243 243 244 247 245 243 242 242 243 246 248 249 250 250 250 250 252 256 261 263 263 263 263 264 269 273 274
238 242 247 247 245 242 239 242 247 246 242 243 246 246 243 241 241 242 244 243 241 240 240 240 242 244 247 250 250 250 250 252 257 262 264 263 263 263 265 267 267 267
233 237 241 240 237 237 240 244 245 243 241 241 245 249 246 242 241 242 241 238 236 237 237 236 238 242 246 249 251 250 251 254 258 262 264 262 260 260 263 264 261 261
207 215 223 227 233 240 248 253 251 248 246 245 246 248 248 248 246 241 235 231 230 231 231 233 237 241 242 246 249 251 252 254 256 259 259 258 257 256 257 259 259 259
172 176 187 193 217 241 225 76 24 262 248 241 242 244 246 255 251 231 217 215 220 223 222 225 230 234 237 240 245 248 251 252 255 257 256 257 259 258 256 259 261 260